Time,TemperatureF,DewpointF,PressureIn,WindDirection,WindDirectionDegrees,WindSpeedMPH,WindSpeedGustMPH,Humidity,HourlyPrecipIn,Conditions,Clouds,dailyrainin,SoftwareType,DateUTC
2013-06-26 00:00:00,75.3,30.9,30.01,NW,304,0.0,0.0,20,0.00,,---,0.00,VWS V12.07,2013-06-26 07:00:00,
2013-06-26 00:02:00,75.0,30.9,30.01,NW,304,0.0,27.3,20,0.00,,---,0.00,VWS V12.07,2013-06-26 07:02:00,
2013-06-26 00:07:00,74.7,30.9,30.01,NW,304,0.0,27.3,20,0.00,,---,0.00,VWS V12.07,2013-06-26 07:07:00,
2013-06-26 00:12:00,74.3,31.0,30.01,NW,304,0.0,27.3,20,0.00,,---,0.00,VWS V12.07,2013-06-26 07:12:00,
2013-06-26 00:17:00,74.0,31.3,30.01,NW,304,0.0,27.3,21,0.00,,---,0.00,VWS V12.07,2013-06-26 07:17:00,
2013-06-26 00:22:00,73.6,31.5,30.01,NW,304,0.0,27.3,21,0.00,,---,0.00,VWS V12.07,2013-06-26 07:22:00,
2013-06-26 00:27:00,73.4,31.5,30.01,NW,304,0.0,27.3,21,0.00,,---,0.00,VWS V12.07,2013-06-26 07:27:00,
2013-06-26 00:30:00,73.3,31.5,30.01,NW,304,0.0,0.0,21,0.00,,---,0.00,VWS V12.07,2013-06-26 07:30:00,
2013-06-26 00:32:00,73.2,31.5,30.01,NW,304,0.0,27.3,22,0.00,,---,0.00,VWS V12.07,2013-06-26 07:32:00,
2013-06-26 00:37:00,73.1,31.5,30.01,NW,304,0.0,27.3,22,0.00,,---,0.00,VWS V12.07,2013-06-26 07:37:00,
2013-06-26 00:42:00,72.9,31.2,30.02,NW,304,0.0,27.3,21,0.00,,---,0.00,VWS V12.07,2013-06-26 07:42:00,
2013-06-26 00:47:00,72.7,31.9,30.01,NW,304,0.0,27.3,22,0.00,,---,0.00,VWS V12.07,2013-06-26 07:47:00,
2013-06-26 00:52:00,72.1,32.0,30.02,NW,304,0.0,27.3,23,0.00,,---,0.00,VWS V12.07,2013-06-26 07:52:00,
2013-06-26 00:57:00,71.6,31.9,30.02,NW,304,0.0,27.3,23,0.00,,---,0.00,VWS V12.07,2013-06-26 07:57:00,
2013-06-26 01:00:00,71.5,31.8,30.02,NW,304,0.0,0.0,23,0.00,,---,0.00,VWS V12.07,2013-06-26 08:00:00,
2013-06-26 01:02:00,71.0,32.1,30.02,NW,304,0.0,27.3,24,0.00,,---,0.00,VWS V12.07,2013-06-26 08:02:00,
2013-06-26 01:07:00,70.5,32.5,30.02,NW,304,0.0,27.3,24,0.00,,---,0.00,VWS V12.07,2013-06-26 08:07:00,
2013-06-26 01:12:00,70.0,32.4,30.02,NW,304,0.0,27.3,25,0.00,,---,0.00,VWS V12.07,2013-06-26 08:12:00,
2013-06-26 01:17:00,69.8,32.8,30.02,NW,304,0.0,27.3,25,0.00,,---,0.00,VWS V12.07,2013-06-26 08:17:00,
2013-06-26 01:22:00,69.6,32.3,30.02,NW,304,0.0,27.3,25,0.00,,---,0.00,VWS V12.07,2013-06-26 08:22:00,
2013-06-26 01:27:00,69.4,32.1,30.02,NW,304,0.0,27.3,25,0.00,,---,0.00,VWS V12.07,2013-06-26 08:27:00,
2013-06-26 01:30:00,69.6,32.2,30.02,NW,304,0.0,0.0,25,0.00,,---,0.00,VWS V12.07,2013-06-26 08:30:00,
2013-06-26 01:32:00,69.4,31.9,30.02,NW,304,0.0,27.3,25,0.00,,---,0.00,VWS V12.07,2013-06-26 08:32:00,
2013-06-26 01:37:00,69.8,31.9,30.02,NW,304,0.0,27.3,24,0.00,,---,0.00,VWS V12.07,2013-06-26 08:37:00,
2013-06-26 01:42:00,70.1,32.0,30.02,NW,304,0.0,27.3,24,0.00,,---,0.00,VWS V12.07,2013-06-26 08:42:00,
2013-06-26 01:47:00,70.1,31.9,30.02,NW,304,0.0,27.3,24,0.00,,---,0.00,VWS V12.07,2013-06-26 08:47:00,
2013-06-26 01:52:00,69.8,31.7,30.02,NW,304,0.0,27.3,24,0.00,,---,0.00,VWS V12.07,2013-06-26 08:52:00,
2013-06-26 01:57:00,69.7,31.8,30.02,NW,304,0.0,27.3,24,0.00,,---,0.00,VWS V12.07,2013-06-26 08:57:00,
2013-06-26 02:00:00,69.7,31.8,30.02,NW,304,0.0,0.0,24,0.00,,---,0.00,VWS V12.07,2013-06-26 09:00:00,
2013-06-26 02:02:00,69.6,31.9,30.02,NW,304,0.0,27.3,25,0.00,,---,0.00,VWS V12.07,2013-06-26 09:02:00,
2013-06-26 02:07:00,69.4,31.6,30.02,NW,304,0.0,27.3,24,0.00,,---,0.00,VWS V12.07,2013-06-26 09:07:00,
2013-06-26 02:12:00,69.3,32.4,30.02,NW,304,0.0,27.3,25,0.00,,---,0.00,VWS V12.07,2013-06-26 09:12:00,
2013-06-26 02:17:00,68.8,32.1,30.02,NW,304,0.0,27.3,26,0.00,,---,0.00,VWS V12.07,2013-06-26 09:17:00,
2013-06-26 02:22:00,68.5,32.4,30.02,NW,304,0.0,27.3,26,0.00,,---,0.00,VWS V12.07,2013-06-26 09:22:00,
2013-06-26 02:27:00,68.1,32.4,30.03,NW,304,0.0,27.3,26,0.00,,---,0.00,VWS V12.07,2013-06-26 09:27:00,
2013-06-26 02:30:00,67.9,32.2,30.03,NW,304,0.0,0.0,26,0.00,,---,0.00,VWS V12.07,2013-06-26 09:30:00,
2013-06-26 02:32:00,67.6,32.3,30.03,NW,304,0.0,27.3,27,0.00,,---,0.00,VWS V12.07,2013-06-26 09:32:00,
2013-06-26 02:37:00,67.0,31.9,30.03,NW,304,0.0,27.3,27,0.00,,---,0.00,VWS V12.07,2013-06-26 09:37:00,
2013-06-26 02:42:00,66.4,31.9,30.03,NW,304,0.0,27.3,28,0.00,,---,0.00,VWS V12.07,2013-06-26 09:42:00,
2013-06-26 02:47:00,66.1,31.8,30.03,NW,304,0.0,27.3,28,0.00,,---,0.00,VWS V12.07,2013-06-26 09:47:00,
2013-06-26 02:52:00,66.0,32.0,30.04,NW,304,0.0,27.3,28,0.00,,---,0.00,VWS V12.07,2013-06-26 09:52:00,
2013-06-26 02:57:00,66.0,32.0,30.03,NW,304,0.0,27.3,28,0.00,,---,0.00,VWS V12.07,2013-06-26 09:57:00,
2013-06-26 03:00:00,66.0,32.0,30.03,NW,304,0.0,0.0,28,0.00,,---,0.00,VWS V12.07,2013-06-26 10:00:00,
2013-06-26 03:02:00,65.9,32.1,30.03,NW,304,0.0,27.3,28,0.00,,---,0.00,VWS V12.07,2013-06-26 10:02:00,
2013-06-26 03:07:00,66.0,32.0,30.04,NW,304,0.0,27.3,28,0.00,,---,0.00,VWS V12.07,2013-06-26 10:07:00,
2013-06-26 03:12:00,66.2,32.3,30.04,NW,304,0.0,27.3,28,0.00,,---,0.00,VWS V12.07,2013-06-26 10:12:00,
2013-06-26 03:17:00,66.4,32.2,30.04,NW,304,0.0,27.3,28,0.00,,---,0.00,VWS V12.07,2013-06-26 10:17:00,
2013-06-26 03:22:00,66.4,31.9,30.04,NW,304,0.0,27.3,28,0.00,,---,0.00,VWS V12.07,2013-06-26 10:22:00,
2013-06-26 03:27:00,66.7,32.0,30.04,NW,304,0.0,27.3,27,0.00,,---,0.00,VWS V12.07,2013-06-26 10:27:00,
2013-06-26 03:30:00,66.7,32.0,30.04,NW,304,0.0,0.0,27,0.00,,---,0.00,VWS V12.07,2013-06-26 10:30:00,
2013-06-26 03:32:00,66.9,32.1,30.04,NW,304,0.0,27.3,27,0.00,,---,0.00,VWS V12.07,2013-06-26 10:32:00,
2013-06-26 03:37:00,66.9,32.2,30.04,NW,304,0.0,27.3,27,0.00,,---,0.00,VWS V12.07,2013-06-26 10:37:00,
2013-06-26 03:42:00,66.9,32.1,30.05,NW,304,0.0,27.3,27,0.00,,---,0.00,VWS V12.07,2013-06-26 10:42:00,
2013-06-26 03:47:00,66.8,32.0,30.05,NW,304,0.0,27.3,27,0.00,,---,0.00,VWS V12.07,2013-06-26 10:47:00,
2013-06-26 03:52:00,66.6,31.9,30.05,NW,304,0.0,27.3,27,0.00,,---,0.00,VWS V12.07,2013-06-26 10:52:00,
2013-06-26 03:57:00,66.5,31.9,30.05,NW,304,0.0,27.3,27,0.00,,---,0.00,VWS V12.07,2013-06-26 10:57:00,
2013-06-26 04:00:00,66.6,32.0,30.05,NW,304,0.0,0.0,27,0.00,,---,0.00,VWS V12.07,2013-06-26 11:00:00,
2013-06-26 04:02:00,66.3,31.9,30.05,NW,304,0.0,27.3,28,0.00,,---,0.00,VWS V12.07,2013-06-26 11:02:00,
2013-06-26 04:07:00,66.0,31.7,30.05,NW,304,0.0,27.3,28,0.00,,---,0.00,VWS V12.07,2013-06-26 11:07:00,
2013-06-26 04:12:00,65.9,31.8,30.05,NW,304,0.0,27.3,28,0.00,,---,0.00,VWS V12.07,2013-06-26 11:12:00,
2013-06-26 04:17:00,65.9,31.9,30.05,NW,304,0.0,27.3,28,0.00,,---,0.00,VWS V12.07,2013-06-26 11:17:00,
2013-06-26 04:22:00,65.8,31.7,30.06,NW,304,0.0,27.3,28,0.00,,---,0.00,VWS V12.07,2013-06-26 11:22:00,
2013-06-26 04:27:00,65.7,31.7,30.06,NW,304,0.0,27.3,28,0.00,,---,0.00,VWS V12.07,2013-06-26 11:27:00,
2013-06-26 04:30:00,65.7,31.7,30.06,NW,304,0.0,0.0,28,0.00,,---,0.00,VWS V12.07,2013-06-26 11:30:00,
2013-06-26 04:32:00,65.6,31.9,30.06,NW,304,0.0,27.3,28,0.00,,---,0.00,VWS V12.07,2013-06-26 11:32:00,
2013-06-26 04:37:00,65.4,32.1,30.06,NW,304,0.0,27.3,29,0.00,,---,0.00,VWS V12.07,2013-06-26 11:37:00,
2013-06-26 04:42:00,65.1,31.9,30.06,NW,304,0.0,27.3,29,0.00,,---,0.00,VWS V12.07,2013-06-26 11:42:00,
2013-06-26 04:47:00,64.7,32.2,30.06,NW,304,0.0,27.3,30,0.00,,---,0.00,VWS V12.07,2013-06-26 11:47:00,
2013-06-26 04:52:00,64.2,32.2,30.07,NW,304,0.0,27.3,30,0.00,,---,0.00,VWS V12.07,2013-06-26 11:52:00,
2013-06-26 04:57:00,64.0,32.0,30.07,NW,304,0.0,27.3,30,0.00,,---,0.00,VWS V12.07,2013-06-26 11:57:00,
2013-06-26 05:00:00,64.0,32.0,30.07,NW,304,0.0,0.0,30,0.00,,---,0.00,VWS V12.07,2013-06-26 12:00:00,
2013-06-26 05:02:00,64.1,31.8,30.07,NW,304,0.0,27.3,30,0.00,,---,0.00,VWS V12.07,2013-06-26 12:02:00,
2013-06-26 05:07:00,64.2,31.8,30.08,NW,304,0.0,27.3,30,0.00,,---,0.00,VWS V12.07,2013-06-26 12:07:00,
2013-06-26 05:12:00,64.0,31.8,30.08,NW,304,0.0,27.3,30,0.00,,---,0.00,VWS V12.07,2013-06-26 12:12:00,
2013-06-26 05:17:00,64.0,32.0,30.08,NW,304,0.0,27.3,30,0.00,,---,0.00,VWS V12.07,2013-06-26 12:17:00,
2013-06-26 05:22:00,63.7,31.8,30.08,NW,304,0.0,27.3,30,0.00,,---,0.00,VWS V12.07,2013-06-26 12:22:00,
2013-06-26 05:27:00,63.6,31.8,30.08,NW,304,0.0,27.3,30,0.00,,---,0.00,VWS V12.07,2013-06-26 12:27:00,
2013-06-26 05:30:00,63.6,31.8,30.08,NW,304,0.0,0.0,30,0.00,,---,0.00,VWS V12.07,2013-06-26 12:30:00,
2013-06-26 05:32:00,63.5,32.3,30.08,NW,304,0.0,27.3,31,0.00,,---,0.00,VWS V12.07,2013-06-26 12:32:00,
2013-06-26 05:37:00,63.4,32.3,30.08,NW,304,0.0,27.3,31,0.00,,---,0.00,VWS V12.07,2013-06-26 12:37:00,
2013-06-26 05:42:00,63.4,32.2,30.08,NW,304,0.0,27.3,31,0.00,,---,0.00,VWS V12.07,2013-06-26 12:42:00,
2013-06-26 05:47:00,63.6,32.3,30.09,NW,304,0.0,27.3,31,0.00,,---,0.00,VWS V12.07,2013-06-26 12:47:00,
2013-06-26 05:52:00,63.7,32.4,30.09,NW,304,0.0,27.3,31,0.00,,---,0.00,VWS V12.07,2013-06-26 12:52:00,
2013-06-26 05:57:00,64.0,32.5,30.09,NW,304,0.0,27.3,31,0.00,,---,0.00,VWS V12.07,2013-06-26 12:57:00,
2013-06-26 06:00:00,64.0,32.5,30.09,NW,304,0.0,0.0,31,0.00,,---,0.00,VWS V12.07,2013-06-26 13:00:00,
2013-06-26 06:02:00,64.2,32.8,30.09,NW,304,0.0,27.3,31,0.00,,---,0.00,VWS V12.07,2013-06-26 13:02:00,
2013-06-26 06:07:00,64.4,32.5,30.09,NW,304,0.0,27.3,30,0.00,,---,0.00,VWS V12.07,2013-06-26 13:07:00,
2013-06-26 06:12:00,64.7,33.4,30.09,NW,304,0.0,27.3,31,0.00,,---,0.00,VWS V12.07,2013-06-26 13:12:00,
2013-06-26 06:17:00,65.0,34.0,30.09,NW,304,0.0,27.3,31,0.00,,---,0.00,VWS V12.07,2013-06-26 13:17:00,
2013-06-26 06:22:00,65.3,35.3,30.09,NW,304,0.0,27.3,33,0.00,,---,0.00,VWS V12.07,2013-06-26 13:22:00,
2013-06-26 06:27:00,65.6,34.3,30.09,NW,304,0.0,27.3,31,0.00,,---,0.00,VWS V12.07,2013-06-26 13:27:00,
2013-06-26 06:30:00,65.6,34.3,30.09,NW,304,0.0,0.0,31,0.00,,---,0.00,VWS V12.07,2013-06-26 13:30:00,
2013-06-26 06:32:00,66.4,34.2,30.09,NW,304,0.0,27.3,30,0.00,,---,0.00,VWS V12.07,2013-06-26 13:32:00,
2013-06-26 06:37:00,67.4,34.2,30.09,NW,304,0.0,27.3,29,0.00,,---,0.00,VWS V12.07,2013-06-26 13:37:00,
2013-06-26 06:42:00,68.2,34.2,30.09,NW,304,0.0,27.3,28,0.00,,---,0.00,VWS V12.07,2013-06-26 13:42:00,
2013-06-26 06:47:00,68.9,34.2,30.09,NW,304,0.0,27.3,28,0.00,,---,0.00,VWS V12.07,2013-06-26 13:47:00,
2013-06-26 06:52:00,69.5,34.6,30.09,NW,304,0.0,27.3,28,0.00,,---,0.00,VWS V12.07,2013-06-26 13:52:00,
2013-06-26 06:57:00,69.8,34.4,30.09,NW,304,0.0,27.3,27,0.00,,---,0.00,VWS V12.07,2013-06-26 13:57:00,
2013-06-26 07:00:00,69.8,34.4,30.09,NW,304,0.0,2.6,27,0.00,,---,0.00,VWS V12.07,2013-06-26 14:00:00,
2013-06-26 07:02:00,70.3,34.4,30.09,NW,304,0.0,27.3,27,0.00,,---,0.00,VWS V12.07,2013-06-26 14:02:00,
2013-06-26 07:07:00,70.9,34.2,30.09,NW,304,0.0,27.3,26,0.00,,---,0.00,VWS V12.07,2013-06-26 14:07:00,
2013-06-26 07:12:00,71.3,33.7,30.09,NW,304,0.0,27.3,25,0.00,,---,0.00,VWS V12.07,2013-06-26 14:12:00,
2013-06-26 07:17:00,72.0,33.2,30.09,NW,304,0.0,27.3,24,0.00,,---,0.00,VWS V12.07,2013-06-26 14:17:00,
2013-06-26 07:22:00,72.4,32.9,30.09,NW,304,0.0,27.3,23,0.00,,---,0.00,VWS V12.07,2013-06-26 14:22:00,
2013-06-26 07:27:00,73.2,32.7,30.09,NW,304,0.0,27.3,22,0.00,,---,0.00,VWS V12.07,2013-06-26 14:27:00,
2013-06-26 07:30:00,73.2,32.7,30.09,NW,304,0.0,0.0,22,0.00,,---,0.00,VWS V12.07,2013-06-26 14:30:00,
2013-06-26 07:32:00,73.8,32.4,30.09,NW,304,0.0,27.3,22,0.00,,---,0.00,VWS V12.07,2013-06-26 14:32:00,
2013-06-26 07:37:00,74.2,32.3,30.09,NW,304,0.0,27.3,21,0.00,,---,0.00,VWS V12.07,2013-06-26 14:37:00,
2013-06-26 07:42:00,75.1,32.8,30.09,NW,304,0.0,27.3,21,0.00,,---,0.00,VWS V12.07,2013-06-26 14:42:00,
2013-06-26 07:47:00,76.0,32.2,30.09,NW,304,0.0,27.3,20,0.00,,---,0.00,VWS V12.07,2013-06-26 14:47:00,
2013-06-26 07:52:00,76.8,33.3,30.09,NW,304,0.0,27.3,20,0.00,,---,0.00,VWS V12.07,2013-06-26 14:52:00,
2013-06-26 07:57:00,77.3,32.9,30.09,NNE,31,0.0,27.3,20,0.00,,---,0.00,VWS V12.07,2013-06-26 14:57:00,
2013-06-26 08:00:00,77.3,32.9,30.09,NNE,31,0.0,3.3,20,0.00,,---,0.00,VWS V12.07,2013-06-26 15:00:00,
2013-06-26 08:02:00,77.8,32.8,30.10,NNE,31,0.0,27.3,19,0.00,,---,0.00,VWS V12.07,2013-06-26 15:02:00,
2013-06-26 08:07:00,78.1,32.5,30.09,NNE,31,0.0,27.3,19,0.00,,---,0.00,VWS V12.07,2013-06-26 15:07:00,
2013-06-26 08:12:00,78.4,32.2,30.10,NNE,31,0.0,27.3,19,0.00,,---,0.00,VWS V12.07,2013-06-26 15:12:00,
2013-06-26 08:17:00,79.1,31.7,30.10,NNE,31,0.0,27.3,18,0.00,,---,0.00,VWS V12.07,2013-06-26 15:17:00,
2013-06-26 08:22:00,80.1,33.5,30.09,NNE,31,0.0,27.3,18,0.00,,---,0.00,VWS V12.07,2013-06-26 15:22:00,
2013-06-26 08:27:00,80.5,34.4,30.09,NNE,31,0.0,27.3,19,0.00,,---,0.00,VWS V12.07,2013-06-26 15:27:00,
2013-06-26 08:30:00,80.5,34.4,30.09,NNE,31,0.0,0.0,19,0.00,,---,0.00,VWS V12.07,2013-06-26 15:30:00,
2013-06-26 08:32:00,80.4,34.3,30.10,ENE,59,0.0,27.3,19,0.00,,---,0.00,VWS V12.07,2013-06-26 15:32:00,
2013-06-26 08:37:00,80.7,32.3,30.09,ENE,59,0.0,27.3,17,0.00,,---,0.00,VWS V12.07,2013-06-26 15:37:00,
2013-06-26 08:42:00,81.3,31.8,30.10,NE,42,0.0,27.3,17,0.00,,---,0.00,VWS V12.07,2013-06-26 15:42:00,
2013-06-26 08:47:00,81.4,31.0,30.10,NE,42,0.0,27.3,16,0.00,,---,0.00,VWS V12.07,2013-06-26 15:47:00,
2013-06-26 08:52:00,82.0,30.6,30.10,NE,42,0.0,27.3,16,0.00,,---,0.00,VWS V12.07,2013-06-26 15:52:00,
2013-06-26 08:57:00,82.5,30.7,30.10,NE,42,0.0,27.3,15,0.00,,---,0.00,VWS V12.07,2013-06-26 15:57:00,
2013-06-26 09:00:00,82.5,30.7,30.10,NE,42,0.0,3.5,15,0.00,,---,0.00,VWS V12.07,2013-06-26 16:00:00,
2013-06-26 09:02:00,83.3,30.7,30.10,NE,42,0.0,27.3,15,0.00,,---,0.00,VWS V12.07,2013-06-26 16:02:00,
2013-06-26 09:07:00,83.8,30.4,30.10,NE,42,0.0,27.3,14,0.00,,---,0.00,VWS V12.07,2013-06-26 16:07:00,
2013-06-26 09:12:00,84.0,30.8,30.10,NE,42,0.0,27.3,15,0.00,,---,0.00,VWS V12.07,2013-06-26 16:12:00,
2013-06-26 09:17:00,84.4,30.4,30.10,NE,42,0.0,27.3,14,0.00,,---,0.00,VWS V12.07,2013-06-26 16:17:00,
2013-06-26 09:22:00,84.5,30.0,30.10,NE,42,0.0,27.3,14,0.00,,---,0.00,VWS V12.07,2013-06-26 16:22:00,
2013-06-26 09:27:00,84.4,30.4,30.10,NE,42,0.0,27.3,14,0.00,,---,0.00,VWS V12.07,2013-06-26 16:27:00,
2013-06-26 09:30:00,84.4,30.4,30.10,NE,42,0.0,0.0,14,0.00,,---,0.00,VWS V12.07,2013-06-26 16:30:00,
2013-06-26 09:32:00,84.9,29.4,30.10,NE,42,0.0,27.3,13,0.00,,---,0.00,VWS V12.07,2013-06-26 16:32:00,
2013-06-26 09:37:00,85.0,28.3,30.10,NE,42,0.0,27.3,13,0.00,,---,0.00,VWS V12.07,2013-06-26 16:37:00,
2013-06-26 09:42:00,85.2,29.0,30.10,NE,42,0.0,27.3,13,0.00,,---,0.00,VWS V12.07,2013-06-26 16:42:00,
2013-06-26 09:47:00,85.7,28.7,30.10,NE,42,0.0,27.3,13,0.00,,---,0.00,VWS V12.07,2013-06-26 16:47:00,
2013-06-26 09:52:00,86.4,30.2,30.10,ENE,65,0.0,27.3,13,0.00,,---,0.00,VWS V12.07,2013-06-26 16:52:00,
2013-06-26 09:57:00,87.1,29.6,30.10,ENE,72,0.0,27.3,13,0.00,,---,0.00,VWS V12.07,2013-06-26 16:57:00,
2013-06-26 10:00:00,87.1,29.8,30.10,ENE,72,0.0,8.1,13,0.00,,---,0.00,VWS V12.07,2013-06-26 17:00:00,
2013-06-26 10:02:00,87.5,29.3,30.10,ESE,112,0.0,27.3,12,0.00,,---,0.00,VWS V12.07,2013-06-26 17:02:00,
2013-06-26 10:07:00,87.7,28.4,30.10,SE,146,0.0,27.3,12,0.00,,---,0.00,VWS V12.07,2013-06-26 17:07:00,
2013-06-26 10:12:00,88.0,29.7,30.10,SE,146,0.0,27.3,12,0.00,,---,0.00,VWS V12.07,2013-06-26 17:12:00,
2013-06-26 10:17:00,88.7,29.2,30.10,SE,146,0.0,27.3,12,0.00,,---,0.00,VWS V12.07,2013-06-26 17:17:00,
2013-06-26 10:22:00,88.4,29.6,30.09,SE,146,0.0,27.3,12,0.00,,---,0.00,VWS V12.07,2013-06-26 17:22:00,
2013-06-26 10:27:00,89.1,29.9,30.09,SE,146,0.0,27.3,12,0.00,,---,0.00,VWS V12.07,2013-06-26 17:27:00,
2013-06-26 10:30:00,88.9,29.8,30.09,SE,146,0.0,6.2,12,0.00,,---,0.00,VWS V12.07,2013-06-26 17:30:00,
2013-06-26 10:32:00,89.2,29.4,30.09,East,82,0.0,27.3,12,0.00,,---,0.00,VWS V12.07,2013-06-26 17:32:00,
2013-06-26 10:37:00,89.7,29.6,30.09,ESE,122,2.7,27.3,12,0.00,,---,0.00,VWS V12.07,2013-06-26 17:37:00,
2013-06-26 10:42:00,90.1,28.6,30.09,ESE,108,0.0,27.3,11,0.00,,---,0.00,VWS V12.07,2013-06-26 17:42:00,
2013-06-26 10:47:00,91.0,28.6,30.09,SSE,162,0.0,27.3,11,0.00,,---,0.00,VWS V12.07,2013-06-26 17:47:00,
2013-06-26 10:52:00,91.7,28.0,30.09,SSE,167,0.0,27.3,10,0.00,,---,0.00,VWS V12.07,2013-06-26 17:52:00,
2013-06-26 10:57:00,91.2,26.9,30.09,East,87,0.0,27.3,10,0.00,,---,0.00,VWS V12.07,2013-06-26 17:57:00,
2013-06-26 11:00:00,91.2,26.9,30.09,East,87,0.0,9.1,10,0.00,,---,0.00,VWS V12.07,2013-06-26 18:00:00,
2013-06-26 11:02:00,91.3,26.4,30.09,East,87,0.0,27.3,10,0.00,,---,0.00,VWS V12.07,2013-06-26 18:02:00,
2013-06-26 11:07:00,91.7,26.5,30.09,South,186,3.2,27.3,10,0.00,,---,0.00,VWS V12.07,2013-06-26 18:07:00,
2013-06-26 11:12:00,92.1,26.0,30.09,SSE,158,0.0,27.3,9,0.00,,---,0.00,VWS V12.07,2013-06-26 18:12:00,
2013-06-26 11:17:00,92.0,26.0,30.08,SE,136,0.0,27.3,9,0.00,,---,0.00,VWS V12.07,2013-06-26 18:17:00,
2013-06-26 11:22:00,92.0,26.7,30.08,East,80,0.0,27.3,10,0.00,,---,0.00,VWS V12.07,2013-06-26 18:22:00,
2013-06-26 11:27:00,92.5,25.8,30.08,SW,224,0.0,27.3,9,0.00,,---,0.00,VWS V12.07,2013-06-26 18:27:00,
2013-06-26 11:30:00,92.3,25.6,30.08,SW,224,0.0,9.8,9,0.00,,---,0.00,VWS V12.07,2013-06-26 18:30:00,
2013-06-26 11:32:00,92.8,24.4,30.08,SSW,204,5.2,27.3,8,0.00,,---,0.00,VWS V12.07,2013-06-26 18:32:00,
2013-06-26 11:37:00,93.4,22.8,30.08,South,186,8.1,27.3,8,0.00,,---,0.00,VWS V12.07,2013-06-26 18:37:00,
2013-06-26 11:42:00,93.7,21.8,30.08,SSW,195,4.2,27.3,7,0.00,,---,0.00,VWS V12.07,2013-06-26 18:42:00,
2013-06-26 11:47:00,94.1,21.7,30.08,South,186,0.0,27.3,7,0.00,,---,0.00,VWS V12.07,2013-06-26 18:47:00,
2013-06-26 11:52:00,94.1,21.4,30.08,SW,228,5.0,27.3,7,0.00,,---,0.00,VWS V12.07,2013-06-26 18:52:00,
2013-06-26 11:57:00,94.5,21.0,30.08,SSW,201,6.5,27.3,7,0.00,,---,0.00,VWS V12.07,2013-06-26 18:57:00,
2013-06-26 12:00:00,94.8,21.2,30.08,SW,226,7.2,12.7,7,0.00,,---,0.00,VWS V12.07,2013-06-26 19:00:00,
2013-06-26 12:02:00,95.2,21.2,30.08,South,190,0.0,27.3,7,0.00,,---,0.00,VWS V12.07,2013-06-26 19:02:00,
2013-06-26 12:07:00,95.0,21.4,30.08,South,191,4.4,27.3,7,0.00,,---,0.00,VWS V12.07,2013-06-26 19:07:00,
2013-06-26 12:12:00,95.0,21.0,30.08,WSW,240,6.6,27.3,7,0.00,,---,0.00,VWS V12.07,2013-06-26 19:12:00,
2013-06-26 12:17:00,95.5,21.1,30.08,South,176,0.0,27.3,7,0.00,,---,0.00,VWS V12.07,2013-06-26 19:17:00,
2013-06-26 12:22:00,95.9,21.0,30.08,WSW,238,4.8,27.3,7,0.00,,---,0.00,VWS V12.07,2013-06-26 19:22:00,
2013-06-26 12:27:00,95.8,21.3,30.07,SE,125,4.3,27.3,7,0.00,,---,0.00,VWS V12.07,2013-06-26 19:27:00,
2013-06-26 12:30:00,95.8,21.3,30.07,South,179,4.2,13.8,7,0.00,,---,0.00,VWS V12.07,2013-06-26 19:30:00,
2013-06-26 12:32:00,95.2,21.2,30.08,South,173,11.6,27.3,7,0.00,,---,0.00,VWS V12.07,2013-06-26 19:32:00,
2013-06-26 12:37:00,95.8,21.3,30.07,South,180,3.5,27.3,7,0.00,,---,0.00,VWS V12.07,2013-06-26 19:37:00,
2013-06-26 12:42:00,96.2,21.6,30.07,SSW,211,7.9,27.3,7,0.00,,---,0.00,VWS V12.07,2013-06-26 19:42:00,
2013-06-26 12:47:00,96.4,21.4,30.07,SSW,198,5.5,27.3,7,0.00,,---,0.00,VWS V12.07,2013-06-26 19:47:00,
2013-06-26 12:52:00,96.8,21.7,30.07,SSW,193,4.2,27.3,7,0.00,,---,0.00,VWS V12.07,2013-06-26 19:52:00,
2013-06-26 12:57:00,96.8,21.7,30.07,South,188,5.1,27.3,7,0.00,,---,0.00,VWS V12.07,2013-06-26 19:57:00,
2013-06-26 13:00:00,96.9,21.7,30.07,South,186,7.2,14.8,7,0.00,,---,0.00,VWS V12.07,2013-06-26 20:00:00,
2013-06-26 13:02:00,96.7,21.6,30.07,South,170,11.0,27.3,7,0.00,,---,0.00,VWS V12.07,2013-06-26 20:02:00,
2013-06-26 13:07:00,97.1,21.9,30.07,SSW,200,6.5,27.3,7,0.00,,---,0.00,VWS V12.07,2013-06-26 20:07:00,
2013-06-26 13:12:00,97.3,21.3,30.07,SSW,197,0.0,27.3,6,0.00,,---,0.00,VWS V12.07,2013-06-26 20:12:00,
2013-06-26 13:17:00,97.5,21.1,30.07,SW,214,3.5,27.3,6,0.00,,---,0.00,VWS V12.07,2013-06-26 20:17:00,
2013-06-26 13:22:00,97.7,21.6,30.06,South,180,6.3,27.3,6,0.00,,---,0.00,VWS V12.07,2013-06-26 20:22:00,
2013-06-26 13:27:00,97.8,20.9,30.06,SSW,205,4.3,27.3,6,0.00,,---,0.00,VWS V12.07,2013-06-26 20:27:00,
2013-06-26 13:30:00,97.9,21.4,30.06,SSW,205,4.7,18.4,6,0.00,,---,0.00,VWS V12.07,2013-06-26 20:30:00,
2013-06-26 13:32:00,97.8,20.9,30.06,South,179,12.8,27.3,6,0.00,,---,0.00,VWS V12.07,2013-06-26 20:32:00,
2013-06-26 13:37:00,97.5,21.1,30.06,South,186,0.0,27.3,6,0.00,,---,0.00,VWS V12.07,2013-06-26 20:37:00,
2013-06-26 13:42:00,97.4,20.6,30.06,SSE,152,9.4,27.3,6,0.00,,---,0.00,VWS V12.07,2013-06-26 20:42:00,
2013-06-26 13:47:00,97.8,20.5,30.06,South,190,5.5,27.3,6,0.00,,---,0.00,VWS V12.07,2013-06-26 20:47:00,
2013-06-26 13:52:00,98.0,20.3,30.06,SE,128,0.0,27.3,6,0.00,,---,0.00,VWS V12.07,2013-06-26 20:52:00,
2013-06-26 13:57:00,98.2,20.5,30.06,South,181,11.2,27.3,6,0.00,,---,0.00,VWS V12.07,2013-06-26 20:57:00,
2013-06-26 14:00:00,98.1,20.4,30.06,SSW,208,6.7,19.2,6,0.00,,---,0.00,VWS V12.07,2013-06-26 21:00:00,
2013-06-26 14:02:00,98.1,20.4,30.05,SE,136,0.0,27.3,6,0.00,,---,0.00,VWS V12.07,2013-06-26 21:02:00,
2013-06-26 14:07:00,97.8,20.2,30.05,South,176,7.6,27.3,6,0.00,,---,0.00,VWS V12.07,2013-06-26 21:07:00,
2013-06-26 14:12:00,97.4,19.9,30.05,SW,231,0.0,27.3,6,0.00,,---,0.00,VWS V12.07,2013-06-26 21:12:00,
2013-06-26 14:17:00,98.0,19.9,30.06,SSE,160,0.0,27.3,6,0.00,,---,0.00,VWS V12.07,2013-06-26 21:17:00,
2013-06-26 14:22:00,98.0,19.9,30.05,SSW,195,0.0,27.3,6,0.00,,---,0.00,VWS V12.07,2013-06-26 21:22:00,
2013-06-26 14:27:00,98.5,19.9,30.05,SSW,195,7.4,27.3,6,0.00,,---,0.00,VWS V12.07,2013-06-26 21:27:00,
2013-06-26 14:30:00,98.4,20.2,30.05,SSE,156,0.0,17.0,6,0.00,,---,0.00,VWS V12.07,2013-06-26 21:30:00,
2013-06-26 14:32:00,99.0,20.2,30.05,SE,145,3.2,27.3,6,0.00,,---,0.00,VWS V12.07,2013-06-26 21:32:00,
2013-06-26 14:37:00,99.4,20.5,30.05,South,188,10.6,27.3,6,0.00,,---,0.00,VWS V12.07,2013-06-26 21:37:00,
2013-06-26 14:42:00,99.1,20.3,30.05,SSW,201,0.0,27.3,6,0.00,,---,0.00,VWS V12.07,2013-06-26 21:42:00,
2013-06-26 14:47:00,98.9,19.8,30.04,South,183,5.0,27.3,6,0.00,,---,0.00,VWS V12.07,2013-06-26 21:47:00,
2013-06-26 14:52:00,99.2,20.0,30.04,SSW,201,0.0,27.3,6,0.00,,---,0.00,VWS V12.07,2013-06-26 21:52:00,
2013-06-26 14:57:00,98.9,19.8,30.04,South,170,7.8,27.3,6,0.00,,---,0.00,VWS V12.07,2013-06-26 21:57:00,
2013-06-26 15:00:00,98.9,19.8,30.04,South,169,3.2,16.6,6,0.00,,---,0.00,VWS V12.07,2013-06-26 22:00:00,
2013-06-26 15:02:00,99.1,19.9,30.04,South,186,0.0,27.3,6,0.00,,---,0.00,VWS V12.07,2013-06-26 22:02:00,
2013-06-26 15:07:00,99.0,19.8,30.03,SW,226,3.0,27.3,6,0.00,,---,0.00,VWS V12.07,2013-06-26 22:07:00,
2013-06-26 15:12:00,98.8,19.7,30.03,SW,226,0.0,27.3,6,0.00,,---,0.00,VWS V12.07,2013-06-26 22:12:00,
2013-06-26 15:17:00,98.8,19.7,30.03,SSW,201,0.0,27.3,6,0.00,,---,0.00,VWS V12.07,2013-06-26 22:17:00,
2013-06-26 15:22:00,99.2,20.0,30.03,SSW,201,0.0,27.3,6,0.00,,---,0.00,VWS V12.07,2013-06-26 22:22:00,
2013-06-26 15:27:00,99.1,19.9,30.03,South,181,0.0,27.3,6,0.00,,---,0.00,VWS V12.07,2013-06-26 22:27:00,
2013-06-26 15:30:00,99.1,19.9,30.03,South,181,4.7,12.7,6,0.00,,---,0.00,VWS V12.07,2013-06-26 22:30:00,
2013-06-26 15:32:00,99.1,19.9,30.03,WSW,245,3.5,27.3,6,0.00,,---,0.00,VWS V12.07,2013-06-26 22:32:00,
2013-06-26 15:37:00,99.8,20.4,30.03,South,177,0.0,27.3,6,0.00,,---,0.00,VWS V12.07,2013-06-26 22:37:00,
2013-06-26 15:42:00,100.1,19.8,30.03,SE,139,4.3,27.3,6,0.00,,---,0.00,VWS V12.07,2013-06-26 22:42:00,
2013-06-26 15:47:00,99.9,20.1,30.03,SE,142,0.0,27.3,6,0.00,,---,0.00,VWS V12.07,2013-06-26 22:47:00,
2013-06-26 15:52:00,99.4,19.7,30.03,South,170,6.7,27.3,6,0.00,,---,0.00,VWS V12.07,2013-06-26 22:52:00,
2013-06-26 15:57:00,99.8,19.6,30.03,SE,143,4.2,27.3,6,0.00,,---,0.00,VWS V12.07,2013-06-26 22:57:00,
2013-06-26 16:00:00,99.5,19.4,30.03,SE,143,0.0,12.5,6,0.00,,---,0.00,VWS V12.07,2013-06-26 23:00:00,
2013-06-26 16:02:00,99.4,19.7,30.02,South,183,5.3,27.3,6,0.00,,---,0.00,VWS V12.07,2013-06-26 23:02:00,
2013-06-26 16:07:00,99.3,19.6,30.02,South,191,4.4,27.3,6,0.00,,---,0.00,VWS V12.07,2013-06-26 23:07:00,
2013-06-26 16:12:00,99.3,19.6,30.02,ESE,115,3.5,27.3,6,0.00,,---,0.00,VWS V12.07,2013-06-26 23:12:00,
2013-06-26 16:17:00,99.2,19.6,30.02,SE,146,4.6,27.3,6,0.00,,---,0.00,VWS V12.07,2013-06-26 23:17:00,
2013-06-26 16:22:00,99.8,20.0,30.02,South,190,3.1,27.3,6,0.00,,---,0.00,VWS V12.07,2013-06-26 23:22:00,
2013-06-26 16:27:00,99.3,19.6,30.02,South,169,8.4,27.3,6,0.00,,---,0.00,VWS V12.07,2013-06-26 23:27:00,
2013-06-26 16:30:00,99.4,19.7,30.02,SSW,195,3.4,15.0,6,0.00,,---,0.00,VWS V12.07,2013-06-26 23:30:00,
2013-06-26 16:32:00,99.4,19.7,30.02,SSE,156,7.9,27.3,6,0.00,,---,0.00,VWS V12.07,2013-06-26 23:32:00,
2013-06-26 16:37:00,99.2,19.6,30.02,SW,225,5.1,27.3,6,0.00,,---,0.00,VWS V12.07,2013-06-26 23:37:00,
2013-06-26 16:42:00,99.3,19.6,30.01,SSE,165,8.4,27.3,6,0.00,,---,0.00,VWS V12.07,2013-06-26 23:42:00,
2013-06-26 16:47:00,99.8,20.0,30.01,SSE,150,5.9,27.3,6,0.00,,---,0.00,VWS V12.07,2013-06-26 23:47:00,
2013-06-26 16:52:00,99.8,20.0,30.01,SSE,156,0.0,27.3,6,0.00,,---,0.00,VWS V12.07,2013-06-26 23:52:00,
2013-06-26 16:57:00,99.1,19.5,30.01,SSW,210,0.0,27.3,6,0.00,,---,0.00,VWS V12.07,2013-06-26 23:57:00,
2013-06-26 17:00:00,99.3,19.6,30.01,South,173,3.2,14.2,6,0.00,,---,0.00,VWS V12.07,2013-06-27 00:00:00,
2013-06-26 17:02:00,98.8,20.1,30.01,South,177,5.2,27.3,6,0.00,,---,0.00,VWS V12.07,2013-06-27 00:02:00,
2013-06-26 17:07:00,98.3,19.7,30.01,SSW,195,12.9,27.3,6,0.00,,---,0.00,VWS V12.07,2013-06-27 00:07:00,
2013-06-26 17:12:00,98.2,19.7,30.01,SW,215,7.0,27.3,6,0.00,,---,0.00,VWS V12.07,2013-06-27 00:12:00,
2013-06-26 17:17:00,98.4,20.2,30.01,South,184,0.0,27.3,6,0.00,,---,0.00,VWS V12.07,2013-06-27 00:17:00,
2013-06-26 17:22:00,98.8,20.9,30.01,South,169,8.0,27.3,6,0.00,,---,0.00,VWS V12.07,2013-06-27 00:22:00,
2013-06-26 17:27:00,98.4,20.6,30.01,SSW,193,5.3,27.3,6,0.00,,---,0.00,VWS V12.07,2013-06-27 00:27:00,
2013-06-26 17:30:00,98.3,20.5,30.01,SSW,204,6.8,13.7,6,0.00,,---,0.00,VWS V12.07,2013-06-27 00:30:00,
2013-06-26 17:32:00,98.3,20.9,30.00,SSW,195,6.2,27.3,6,0.00,,---,0.00,VWS V12.07,2013-06-27 00:32:00,
2013-06-26 17:37:00,98.4,21.4,30.01,SSE,165,7.0,27.3,6,0.00,,---,0.00,VWS V12.07,2013-06-27 00:37:00,
2013-06-26 17:42:00,98.4,21.4,30.00,SSW,202,5.4,27.3,6,0.00,,---,0.00,VWS V12.07,2013-06-27 00:42:00,
2013-06-26 17:47:00,98.0,21.1,30.00,South,188,7.2,27.3,6,0.00,,---,0.00,VWS V12.07,2013-06-27 00:47:00,
2013-06-26 17:52:00,97.8,21.3,30.00,SSW,201,5.3,27.3,6,0.00,,---,0.00,VWS V12.07,2013-06-27 00:52:00,
2013-06-26 17:57:00,97.7,21.2,30.00,SSE,162,3.3,27.3,6,0.00,,---,0.00,VWS V12.07,2013-06-27 00:57:00,
2013-06-26 18:00:00,97.8,21.3,30.00,SE,146,5.7,12.9,6,0.00,,---,0.00,VWS V12.07,2013-06-27 01:00:00,
2013-06-26 18:02:00,97.7,22.0,30.00,South,188,3.4,27.3,7,0.00,,---,0.00,VWS V12.07,2013-06-27 01:02:00,
2013-06-26 18:07:00,97.2,21.6,30.01,South,176,8.8,27.3,7,0.00,,---,0.00,VWS V12.07,2013-06-27 01:07:00,
2013-06-26 18:12:00,96.9,21.7,30.01,South,184,7.1,27.3,7,0.00,,---,0.00,VWS V12.07,2013-06-27 01:12:00,
2013-06-26 18:17:00,96.9,22.1,30.00,South,186,4.5,27.3,7,0.00,,---,0.00,VWS V12.07,2013-06-27 01:17:00,
2013-06-26 18:22:00,96.4,22.1,30.00,South,180,0.0,27.3,7,0.00,,---,0.00,VWS V12.07,2013-06-27 01:22:00,
2013-06-26 18:27:00,96.2,22.3,30.01,SE,141,3.4,27.3,7,0.00,,---,0.00,VWS V12.07,2013-06-27 01:27:00,
2013-06-26 18:30:00,96.2,22.3,30.01,SSW,193,5.2,14.7,7,0.00,,---,0.00,VWS V12.07,2013-06-27 01:30:00,
2013-06-26 18:32:00,95.9,23.7,30.01,SSW,198,6.7,27.3,8,0.00,,---,0.00,VWS V12.07,2013-06-27 01:32:00,
2013-06-26 18:37:00,95.4,23.9,30.01,SSW,195,6.0,27.3,8,0.00,,---,0.00,VWS V12.07,2013-06-27 01:37:00,
2013-06-26 18:42:00,95.2,25.0,30.01,SSE,166,4.7,27.3,8,0.00,,---,0.00,VWS V12.07,2013-06-27 01:42:00,
2013-06-26 18:47:00,94.9,25.4,30.01,South,179,5.6,27.3,8,0.00,,---,0.00,VWS V12.07,2013-06-27 01:47:00,
2013-06-26 18:52:00,94.7,26.4,30.01,South,191,6.3,27.3,9,0.00,,---,0.00,VWS V12.07,2013-06-27 01:52:00,
2013-06-26 18:57:00,94.3,26.9,30.01,SW,222,2.2,27.3,9,0.00,,---,0.00,VWS V12.07,2013-06-27 01:57:00,
2013-06-26 19:00:00,94.5,26.8,30.01,West,269,5.6,14.7,9,0.00,,---,0.00,VWS V12.07,2013-06-27 02:00:00,
2013-06-26 19:02:00,94.1,27.5,30.02,West,274,0.0,27.3,9,0.00,,---,0.00,VWS V12.07,2013-06-27 02:02:00,
2013-06-26 19:07:00,93.8,28.1,30.02,SSW,200,0.0,27.3,10,0.00,,---,0.00,VWS V12.07,2013-06-27 02:07:00,
2013-06-26 19:12:00,93.4,28.0,30.02,SSW,200,0.0,27.3,10,0.00,,---,0.00,VWS V12.07,2013-06-27 02:12:00,
2013-06-26 19:17:00,93.0,28.9,30.02,South,191,0.0,27.3,10,0.00,,---,0.00,VWS V12.07,2013-06-27 02:17:00,
2013-06-26 19:22:00,92.7,29.6,30.03,SW,224,2.9,27.3,11,0.00,,---,0.00,VWS V12.07,2013-06-27 02:22:00,
2013-06-26 19:27:00,92.0,30.5,30.03,SW,226,5.7,27.3,11,0.00,,---,0.00,VWS V12.07,2013-06-27 02:27:00,
2013-06-26 19:30:00,91.9,30.2,30.03,South,184,0.0,10.6,11,0.00,,---,0.00,VWS V12.07,2013-06-27 02:30:00,
2013-06-26 19:32:00,91.4,30.9,30.03,SSW,198,5.7,27.3,12,0.00,,---,0.00,VWS V12.07,2013-06-27 02:32:00,
2013-06-26 19:37:00,91.0,31.2,30.03,South,184,5.5,27.3,12,0.00,,---,0.00,VWS V12.07,2013-06-27 02:37:00,
2013-06-26 19:42:00,90.8,31.5,30.03,South,176,5.0,27.3,12,0.00,,---,0.00,VWS V12.07,2013-06-27 02:42:00,
2013-06-26 19:47:00,90.6,31.9,30.03,South,187,5.8,27.3,12,0.00,,---,0.00,VWS V12.07,2013-06-27 02:47:00,
2013-06-26 19:52:00,90.1,31.9,30.03,WSW,238,6.5,27.3,13,0.00,,---,0.00,VWS V12.07,2013-06-27 02:52:00,
2013-06-26 19:57:00,90.0,32.0,30.03,West,260,0.0,27.3,13,0.00,,---,0.00,VWS V12.07,2013-06-27 02:57:00,
2013-06-26 20:00:00,90.0,32.0,30.03,West,260,3.4,13.9,13,0.00,,---,0.00,VWS V12.07,2013-06-27 03:00:00,
2013-06-26 20:02:00,89.7,32.4,30.03,SW,219,2.9,27.3,13,0.00,,---,0.00,VWS V12.07,2013-06-27 03:02:00,
2013-06-26 20:07:00,89.5,32.6,30.03,WSW,238,0.0,27.3,13,0.00,,---,0.00,VWS V12.07,2013-06-27 03:07:00,
2013-06-26 20:12:00,89.1,32.8,30.03,SSW,197,0.0,27.3,14,0.00,,---,0.00,VWS V12.07,2013-06-27 03:12:00,
2013-06-26 20:17:00,88.7,33.4,30.03,WSW,242,7.2,27.3,14,0.00,,---,0.00,VWS V12.07,2013-06-27 03:17:00,
2013-06-26 20:22:00,88.6,33.9,30.04,SW,221,0.0,27.3,14,0.00,,---,0.00,VWS V12.07,2013-06-27 03:22:00,
2013-06-26 20:27:00,88.6,34.2,30.04,SW,215,4.7,27.3,14,0.00,,---,0.00,VWS V12.07,2013-06-27 03:27:00,
2013-06-26 20:30:00,88.6,34.1,30.04,WSW,240,0.0,13.0,14,0.00,,---,0.00,VWS V12.07,2013-06-27 03:30:00,
2013-06-26 20:32:00,88.4,34.4,30.04,SSW,212,0.0,27.3,15,0.00,,---,0.00,VWS V12.07,2013-06-27 03:32:00,
2013-06-26 20:37:00,88.3,34.7,30.04,WSW,249,5.5,27.3,15,0.00,,---,0.00,VWS V12.07,2013-06-27 03:37:00,
2013-06-26 20:42:00,88.3,35.0,30.04,WSW,250,0.0,27.3,15,0.00,,---,0.00,VWS V12.07,2013-06-27 03:42:00,
2013-06-26 20:47:00,87.9,35.0,30.04,West,273,7.8,27.3,15,0.00,,---,0.00,VWS V12.07,2013-06-27 03:47:00,
2013-06-26 20:52:00,88.0,35.1,30.04,West,266,5.4,27.3,15,0.00,,---,0.00,VWS V12.07,2013-06-27 03:52:00,
2013-06-26 20:57:00,88.2,35.3,30.04,WSW,253,0.0,27.3,15,0.00,,---,0.00,VWS V12.07,2013-06-27 03:57:00,
2013-06-26 21:00:00,88.1,35.2,30.04,WSW,253,0.0,12.1,15,0.00,,---,0.00,VWS V12.07,2013-06-27 04:00:00,
2013-06-26 21:01:00,87.9,35.2,30.04,WSW,253,0.0,27.3,15,0.00,,---,0.00,VWS V12.07,2013-06-27 04:01:00,
2013-06-26 21:06:00,87.6,35.3,30.04,WSW,253,0.0,27.3,16,0.00,,---,0.00,VWS V12.07,2013-06-27 04:06:00,
2013-06-26 21:11:00,87.5,35.5,30.04,WNW,283,5.9,27.3,16,0.00,,---,0.00,VWS V12.07,2013-06-27 04:11:00,
2013-06-26 21:16:00,87.4,35.4,30.05,WSW,240,0.0,27.3,16,0.00,,---,0.00,VWS V12.07,2013-06-27 04:16:00,
2013-06-26 21:21:00,87.4,35.8,30.05,WSW,240,0.0,27.3,16,0.00,,---,0.00,VWS V12.07,2013-06-27 04:21:00,
2013-06-26 21:26:00,87.0,35.8,30.06,WSW,240,0.0,27.3,16,0.00,,---,0.00,VWS V12.07,2013-06-27 04:26:00,
2013-06-26 21:30:00,87.0,35.8,30.06,WSW,240,0.0,9.8,16,0.00,,---,0.00,VWS V12.07,2013-06-27 04:30:00,
2013-06-26 21:31:00,86.9,36.0,30.06,WSW,240,0.0,27.3,16,0.00,,---,0.00,VWS V12.07,2013-06-27 04:31:00,
2013-06-26 21:36:00,86.3,36.0,30.06,WSW,240,0.0,27.3,17,0.00,,---,0.00,VWS V12.07,2013-06-27 04:36:00,
2013-06-26 21:41:00,85.7,35.6,30.06,WSW,240,0.0,27.3,17,0.00,,---,0.00,VWS V12.07,2013-06-27 04:41:00,
2013-06-26 21:46:00,84.9,35.6,30.06,WSW,240,0.0,27.3,17,0.00,,---,0.00,VWS V12.07,2013-06-27 04:46:00,
2013-06-26 21:51:00,84.4,35.7,30.06,WSW,240,0.0,27.3,18,0.00,,---,0.00,VWS V12.07,2013-06-27 04:51:00,
2013-06-26 21:56:00,83.6,35.7,30.06,WSW,240,0.0,27.3,18,0.00,,---,0.00,VWS V12.07,2013-06-27 04:56:00,
2013-06-26 22:00:00,83.5,35.7,30.06,WSW,240,0.0,0.0,18,0.00,,---,0.00,VWS V12.07,2013-06-27 05:00:00,
2013-06-26 22:01:00,83.0,36.0,30.06,WSW,240,0.0,27.3,19,0.00,,---,0.00,VWS V12.07,2013-06-27 05:01:00,
2013-06-26 22:06:00,82.5,36.4,30.06,WSW,240,0.0,27.3,19,0.00,,---,0.00,VWS V12.07,2013-06-27 05:06:00,
2013-06-26 22:11:00,82.2,36.7,30.07,WSW,240,0.0,27.3,20,0.00,,---,0.00,VWS V12.07,2013-06-27 05:11:00,
2013-06-26 22:16:00,81.9,36.9,30.07,WSW,240,0.0,27.3,20,0.00,,---,0.00,VWS V12.07,2013-06-27 05:16:00,
2013-06-26 22:21:00,81.2,37.2,30.08,WSW,240,0.0,27.3,21,0.00,,---,0.00,VWS V12.07,2013-06-27 05:21:00,
2013-06-26 22:26:00,81.0,37.2,30.08,WSW,240,0.0,27.3,21,0.00,,---,0.00,VWS V12.07,2013-06-27 05:26:00,
2013-06-26 22:30:00,80.7,36.9,30.08,WSW,240,0.0,0.0,21,0.00,,---,0.00,VWS V12.07,2013-06-27 05:30:00,
2013-06-26 22:31:00,80.6,37.2,30.08,WSW,240,0.0,27.3,21,0.00,,---,0.00,VWS V12.07,2013-06-27 05:31:00,
2013-06-26 22:36:00,80.5,37.2,30.08,WSW,240,0.0,27.3,21,0.00,,---,0.00,VWS V12.07,2013-06-27 05:36:00,
2013-06-26 22:41:00,80.3,37.2,30.08,WSW,240,0.0,27.3,21,0.00,,---,0.00,VWS V12.07,2013-06-27 05:41:00,
2013-06-26 22:46:00,79.9,37.1,30.08,WSW,240,0.0,27.3,22,0.00,,---,0.00,VWS V12.07,2013-06-27 05:46:00,
2013-06-26 22:51:00,79.8,37.3,30.08,WSW,240,0.0,27.3,22,0.00,,---,0.00,VWS V12.07,2013-06-27 05:51:00,
2013-06-26 22:56:00,79.5,37.5,30.08,WSW,240,0.0,27.3,22,0.00,,---,0.00,VWS V12.07,2013-06-27 05:56:00,
2013-06-26 23:00:00,79.7,37.8,30.08,WSW,240,0.0,0.0,22,0.00,,---,0.00,VWS V12.07,2013-06-27 06:00:00,
2013-06-26 23:01:00,79.3,37.5,30.08,WSW,240,0.0,27.3,22,0.00,,---,0.00,VWS V12.07,2013-06-27 06:01:00,
2013-06-26 23:06:00,79.2,37.6,30.08,WSW,240,0.0,27.3,22,0.00,,---,0.00,VWS V12.07,2013-06-27 06:06:00,
2013-06-26 23:11:00,79.3,37.8,30.08,WSW,240,0.0,27.3,22,0.00,,---,0.00,VWS V12.07,2013-06-27 06:11:00,
2013-06-26 23:16:00,79.0,37.8,30.08,WSW,240,0.0,27.3,23,0.00,,---,0.00,VWS V12.07,2013-06-27 06:16:00,
2013-06-26 23:21:00,78.9,37.8,30.08,WSW,240,0.0,27.3,23,0.00,,---,0.00,VWS V12.07,2013-06-27 06:21:00,
2013-06-26 23:26:00,78.9,38.0,30.08,WSW,240,0.0,27.3,23,0.00,,---,0.00,VWS V12.07,2013-06-27 06:26:00,
2013-06-26 23:30:00,78.9,38.0,30.08,WSW,240,0.0,0.0,23,0.00,,---,0.00,VWS V12.07,2013-06-27 06:30:00,
2013-06-26 23:31:00,78.8,37.9,30.08,WSW,240,0.0,27.3,23,0.00,,---,0.00,VWS V12.07,2013-06-27 06:31:00,
2013-06-26 23:36:00,78.5,38.1,30.08,WSW,240,0.0,27.3,23,0.00,,---,0.00,VWS V12.07,2013-06-27 06:36:00,
2013-06-26 23:41:00,78.3,38.2,30.08,WSW,240,0.0,27.3,24,0.00,,---,0.00,VWS V12.07,2013-06-27 06:41:00,
2013-06-26 23:46:00,78.2,38.2,30.08,WSW,240,0.0,27.3,24,0.00,,---,0.00,VWS V12.07,2013-06-27 06:46:00,
2013-06-26 23:51:00,77.9,38.1,30.09,WSW,240,0.0,27.3,24,0.00,,---,0.00,VWS V12.07,2013-06-27 06:51:00,
2013-06-26 23:56:00,77.8,38.4,30.08,WSW,240,0.0,27.3,24,0.00,,---,0.00,VWS V12.07,2013-06-27 06:56:00,